Lid_Strength_Index
13 12 12 13 13 13 14 14 17 15 14 12 10 10 10 9 8 8 8 7 6 6 5 5 5 5 5 6 6 6 7 8 8 8 8 8 10 10 11 10 10 10 11 11
16 13 14 15 13 13 12 12 13 14 14 9 9 9 9 9 8 8 8 7 6 6 5 5 7 6 6 7 7 8 9 8 8 8 8 9 9 10 10 10 11 11 12 13
18 15 15 17 14 13 13 11 12 16 12 10 11 10 10 9 8 8 7 7 6 6 6 7 7 6 7 8 8 8 8 8 8 8 9 9 9 9 10 11 12 13 14 14
18 17 21 14 10 11 12 12 11 11 11 10 9 9 9 7 8 9 7 6 6 7 6 7 7 8 8 8 9 8 8 9 8 9 8 8 8 10 10 12 13 14 15 15
20 19 15 13 12 12 13 13 10 11 10 9 8 8 9 6 7 7 6 6 6 7 7 8 9 9 9 8 8 9 9 9 8 8 8 8 9 10 10 11 13 14 15 15
18 20 21 14 10 9 10 16 9 10 11 10 9 13 11 7 6 6 6 8 8 8 9 9 8 8 9 9 9 10 9 9 9 8 8 9 10 10 10 11 13 14 14 15
17 18 15 10 11 8 17 16 11 10 11 10 11 10 8 8 8 7 9 9 9 9 10 9 8 8 9 9 10 9 9 10 11 12 12 11 10 9 10 12 13 14 15 15
16 18 19 12 11 14 11 10 10 11 11 11 10 10 8 8 8 8 10 10 10 10 9 8 8 9 10 10 10 11 13 14 14 14 12 12 12 12 11 13 14 16 16 16
17 17 14 12 10 9 9 11 11 11 11 11 11 11 9 11 10 10 11 10 10 10 10 9 9 9 10 11 13 14 15 15 15 15 15 14 14 14 15 16 16 16 17 17
15 14 14 12 10 10 10 11 10 10 11 11 12 11 10 10 11 11 10 10 9 10 10 10 9 10 11 13 14 15 16 16 16 16 16 16 16 16 16 16 17 17 17 16
15 14 13 12 11 11 11 10 11 10 11 11 12 12 12 12 11 11 10 10 10 10 10 10 10 11 12 12 13 15 15 16 16 16 16 16 16 15 15 16 16 17 17 16
17 14 13 13 11 10 11 11 11 11 11 12 12 11 11 11 11 10 10 10 10 10 10 10 10 10 11 11 13 14 15 16 16 16 16 15 15 16 12 12 12 12 12 13
13 10 11 11 10 10 11 10 10 10 11 11 11 11 11 12 11 10 10 11 11 11 11 10 10 10 10 11 12 14 15 15 15 15 15 16 16 15 16 14 11 11 11 11
10 10 12 10 11 10 10 10 9 10 10 11 11 10 11 11 12 12 12 11 11 12 12 12 12 12 10 10 12 13 13 12 14 15 15 16 16 16 16 15 15 15 12 11
10 9 10 9 9 9 9 9 10 11 10 10 10 11 11 12 12 12 12 12 12 12 12 13 13 13 10 10 11 11 12 13 13 14 15 14 15 15 15 15 15 15 14 13
10 9 9 10 10 10 10 10 11 11 10 11 11 11 12 12 12 12 12 12 13 14 13 13 13 12 11 11 11 12 12 11 12 13 13 14 14 14 15 15 15 15 15 15
11 11 11 10 10 10 10 10 10 11 11 12 12 12 12 13 13 13 13 13 12 13 12 12 12 11 10 11 12 12 13 13 12 14 14 13 14 14 15 15 15 15 15 14
9 9 10 10 10 11 11 11 11 12 12 12 12 12 13 13 13 13 12 12 12 12 12 12 11 11 12 12 13 13 13 14 14 14 14 14 14 14 14 15 15 15 15 14
8 9 10 10 10 11 11 12 12 11 11 11 12 12 12 12 13 13 12 13 13 14 14 12 10 12 13 11 12 13 13 13 14 15 14 13 14 15 15 15 15 15 15 15
10 10 10 11 10 11 11 11 10 10 10 11 11 12 12 12 12 13 13 14 14 14 13 12 12 13 13 12 12 13 13 14 14 15 14 15 15 15 15 14 15 15 15 15
11 11 11 10 10 9 10 9 10 10 10 10 11 12 12 12 12 13 13 14 14 13 13 12 12 13 13 12 12 13 13 14 14 14 14 15 15 15 15 15 15 15 15 15
11 11 11 10 10 10 10 10 9 10 10 10 10 11 11 12 12 13 13 13 14 12 13 13 13 12 12 12 12 13 13 13 14 14 14 14 14 14 15 15 15 15 15 15
11 11 10 10 10 10 10 9 9 9 9 10 10 11 12 12 13 13 14 12 13 12 13 13 13 13 12 12 12 12 12 13 13 14 13 14 14 14 14 14 15 14 15 15
10 10 10 10 10 10 10 10 9 9 9 9 10 10 11 12 13 12 12 11 12 12 13 13 13 12 12 12 12 12 12 12 13 13 13 14 15 14 17 14 14 14 14 14
10 10 10 10 11 11 11 10 10 10 10 10 10 10 10 10 11 11 11 12 12 12 13 13 13 13 11 11 11 12 12 13 13 13 13 13 14 14 16 17 15 14 14 14
10 10 10 10 11 11 11 11 11 11 11 11 11 10 10 10 11 11 12 12 12 12 13 13 12 12 12 11 11 11 12 12 12 12 12 13 13 13 15 15 15 15 13 14
10 10 10 11 11 11 11 11 11 11 11 10 11 11 11 11 11 12 12 12 12 13 13 13 13 12 12 12 11 11 11 11 12 12 11 12 12 12 13 13 14 13 14 14